This is the latest recevied weather packets stored in our database for station/object KU4DD. If no packets are shown the sender has not sent any weather packets the latest 10 day(s).
| Time | Temp. | Humidity | Pressure | Rain* | Wind** | Luminosity | Snow |
|---|---|---|---|---|---|---|---|
| 1777765699 | 22.22° C | 55% | 1009.8 hPa | 0 mm | - | - | - |
| 1777764769 | 22.22° C | 55% | 1009.5 hPa | 0 mm | - | - | - |
| 1777762595 | 22.22° C | 53% | 1009.5 hPa | 0 mm | - | - | - |
| 1777761352 | 22.78° C | 55% | 1009.1 hPa | 0 mm | - | - | - |
| 1777756441 | 22.22° C | 54% | 1009.1 hPa | 0 mm | - | - | - |
| 1777754550 | 21.67° C | 57% | 1009.1 hPa | 0 mm | - | - | - |
| 1777754233 | 21.67° C | 57% | 1009.1 hPa | 0 mm | - | - | - |
| 1777753614 | 21.67° C | 57% | 1009.1 hPa | 0 mm | - | - | - |
| 1777752077 | 21.11° C | 56% | 1009.1 hPa | 0 mm | - | - | - |
| 1777751148 | 21.11° C | 54% | 1009.5 hPa | 0 mm | - | - | - |
| 1777750214 | 21.11° C | 53% | 1009.5 hPa | 0 mm | - | - | - |
| 1777747765 | 21.11° C | 54% | 1009.8 hPa | 0 mm | - | - | - |
| 1777747449 | 21.11° C | 54% | 1009.8 hPa | 0 mm | - | - | - |
| 1777745576 | 21.11° C | 53% | 1010.2 hPa | 0 mm | - | - | - |
| 1777744644 | 21.11° C | 54% | 1009.8 hPa | 0 mm | - | - | - |
| 1777743768 | 21.11° C | 54% | 1010.2 hPa | 0 mm | - | - | - |
| 1777742536 | 21.11° C | 54% | 1010.2 hPa | 0 mm | - | - | - |
| 1777740082 | 21.11° C | 55% | 1010.2 hPa | 0 mm | - | - | - |
| 1777737546 | 21.67° C | 53% | 1011.2 hPa | 0 mm | - | - | - |
| 1777736888 | 21.11° C | 55% | 1010.8 hPa | 0 mm | - | - | - |
| 1777732000 | 21.11° C | 100% | 1010.8 hPa | 0 mm | - | - | - |
| 1777731675 | 21.11° C | 100% | 1010.8 hPa | 0 mm | - | - | - |
| 1777729956 | 21.11° C | 100% | 1010.2 hPa | 0 mm | - | - | - |
| 1777728387 | 21.11° C | 100% | 1009.8 hPa | 0 mm | - | - | - |
| 1777725565 | 21.67° C | 94% | 1009.8 hPa | 0 mm | - | - | - |
* Rain latest hour (hover to see other rain measurements)
** Current wind speed in m/s (hover to see current wind gust speed)